Station SRXA2 - Statter Harbor MXAK, AK Image indicating link to RSS feed of recent meteorological observations for station SRXA2


Conditions at SRXA2 as of
(2:13 am AKDT)
1013 GMT on 04/16/2024:
     

Click on the graph icon in the table below to see a time series plot of the last five days of that observation.

5-day plot - Wind Direction Wind Direction (WDIR): N ( 360 deg true )
5-day plot - Wind Speed Wind Speed (WSPD): 4 kts
5-day plot - Wind Gust Wind Gust (GST): 7 kts
5-day plot - Atmospheric Pressure Atmospheric Pressure (PRES):30.49 in
5-day plot - Air Temperature Air Temperature (ATMP): 31.5 °F
5-day plot - Dew Point Dew Point (DEWP): 24.8 °F
5-day plot - Wind Chill Wind Chill (CHILL): 26.8 °F
5-day plot - Wind Speed at 10 Meters Wind Speed at 10 meters (WSPD10M): 6 kts
5-day plot - Wind Speed at 20 Meters Wind Speed at 20 meters (WSPD20M): 6 kts
5-day plot -  Wind Speed, Wind Gust and Atmospheric Pressure Combined plot of Wind Speed, Gust, and Air Pressure
Previous observations
TIME
(AKDT)
5-day plot - Wind Direction
WDIR
 
5-day plot - Wind Speed
WSPD
kts
5-day plot - Wind Gust
GST
kts
5-day plot - Wave Height
WVHT
ft
5-day plot - Dominant Wave Period
DPD
sec
5-day plot - Average Wave Period
APD
sec
5-day plot - Mean Wave Direction
MWD
 
5-day plot - Atmospheric Pressure
PRES
in
5-day plot - Pressure Tendency
PTDY
in
5-day plot - Air Temperature
ATMP
°F
5-day plot - Water Temperature
WTMP
°F
5-day plot - Dew Point
DEWP
°F
5-day plot - Salinity
SAL
psu
5-day plot - Visibility
VIS
nmi
5-day plot - Tide (above MLLW)
TIDE
ft
2024-04-16 02:03 am N 5 7----30.48- 31.1- 25.2---
2024-04-16 01:53 am N 5 6----30.48- 31.1- 25.2---
2024-04-16 01:43 am N 4 5----30.48- 31.1- 25.2---
2024-04-16 01:33 am N 4 5----30.48- 31.5- 24.6---
2024-04-16 01:23 am N 4 5----30.47- 31.3- 24.8---
2024-04-16 01:13 am N 4 5----30.47- 31.5- 24.8---
2024-04-16 01:03 am N 4 5----30.47- 32.0- 25.2---
2024-04-16 12:53 am N 4 5----30.46- 31.8- 25.2---
2024-04-16 12:43 am N 4 5----30.46- 32.2- 25.0---
2024-04-16 12:33 am N 5 6----30.46- 32.2- 24.4---
2024-04-16 12:24 am N 5 6----30.46- 32.2- 25.3---
2024-04-16 12:14 am N 3 5----30.46- 32.5- 24.8---
2024-04-16 12:03 am N 4 5----30.46- 32.5- 24.4---
2024-04-15 11:53 pm N 4 5----30.45- 32.4- 25.2---
2024-04-15 11:43 pm N 3 4----30.45- 32.7- 25.3---
2024-04-15 11:33 pm N 3 4----30.45- 33.3- 25.3---
2024-04-15 11:23 pm N 3 5----30.45- 33.8- 25.0---
2024-04-15 11:13 pm N 4 5----30.45- 33.4- 25.0---
2024-04-15 11:03 pmNNW 5 6----30.45- 34.0- 25.3---
2024-04-15 10:53 pm N 4 6----30.44- 34.0- 25.3---
2024-04-15 10:43 pm N 4 6----30.44- 34.3- 25.9---
2024-04-15 10:33 pm N 4 6----30.44- 34.7- 25.9---
2024-04-15 10:23 pm N 4 5----30.44- 34.5- 25.2---
2024-04-15 10:13 pm N 4 5----30.44- 34.5- 25.9---
2024-04-15 10:03 pm N 3 5----30.44- 35.4- 26.4---
2024-04-15 09:53 pm N 3 5----30.44- 35.4- 25.2---
2024-04-15 09:43 pm N 4 5----30.43- 35.8- 25.7---
2024-04-15 09:33 pm N 3 5----30.43- 36.1- 27.0---
2024-04-15 09:23 pm N 3 4----30.43- 36.5- 26.6---
2024-04-15 09:13 pmNNW 2 3----30.42- 37.2- 27.0---
2024-04-15 09:03 pmNNW 3 4----30.42- 37.4- 27.1---
2024-04-15 08:53 pm N 3 4----30.42- 37.6- 27.5---
2024-04-15 08:43 pm N 3 4----30.42- 38.5- 27.3---
2024-04-15 08:34 pmNNW 3 5----30.42- 39.2- 28.0---
2024-04-15 08:24 pmNNW 3 4----30.41- 40.3- 27.7---
2024-04-15 08:14 pmNNW 3 4----30.41- 40.3- 28.4---
2024-04-15 08:03 pmNNW 3 4----30.41- 41.4- 28.0---
2024-04-15 07:53 pm NW 3 5----30.40- 42.4- 27.5---
2024-04-15 07:43 pmNNW 3 4----30.40- 43.5- 24.6---
2024-04-15 07:33 pm N 3 4----30.40- 44.4- 25.2---
2024-04-15 07:23 pm N 3 6----30.39- 47.1- 24.3---
2024-04-15 07:13 pmNNE 4 7----30.39- 48.6- 20.8---
2024-04-15 07:03 pmNNE 4 8----30.39- 49.1- 20.8---
2024-04-15 06:54 pm N 5 9----30.39- 49.3- 21.2---
2024-04-15 06:44 pm NW 4 8----30.39- 49.3- 21.0---
2024-04-15 06:34 pmWNW 6 10----30.39- 49.3- 20.3---
2024-04-15 06:24 pm NW 7 13----30.39- 49.1- 20.5---
2024-04-15 06:13 pmWNW 7 12----30.39- 49.3- 20.3---
2024-04-15 06:03 pm NW 8 14----30.39- 49.1- 19.9---
2024-04-15 05:53 pm NW 8 16----30.39- 49.1- 20.1---
2024-04-15 05:43 pm NW 7 13----30.38- 49.3- 20.3---
2024-04-15 05:33 pm NW 8 16----30.38- 49.3- 20.7---
2024-04-15 05:23 pm NW 8 15----30.38- 49.1- 20.5---
2024-04-15 05:13 pmWNW 8 16----30.38- 49.3- 20.8---
2024-04-15 05:04 pmWNW 8 16----30.38- 49.1- 20.8---
2024-04-15 04:53 pm W 9 18----30.38- 49.1- 20.8---
2024-04-15 04:43 pm W 11 18----30.37- 49.1- 20.1---
2024-04-15 04:33 pmWNW 10 16----30.37- 49.1- 20.5---
2024-04-15 04:23 pmWNW 9 17----30.37- 49.1- 21.0---
2024-04-15 04:13 pm W 11 18----30.37- 48.7- 20.5---
2024-04-15 03:53 pm W 10 17----30.37- 48.9- 20.5---
2024-04-15 03:43 pm W 11 18----30.37- 48.9- 20.3---
2024-04-15 03:33 pm W 10 20----30.37- 49.1- 21.0---
2024-04-15 03:23 pm W 12 18----30.37- 48.7- 21.0---
2024-04-15 03:13 pm W 12 18----30.37- 48.6- 20.5---
2024-04-15 03:03 pm W 13 22----30.37- 48.7- 20.8---
2024-04-15 02:53 pm W 12 21----30.37- 48.7- 21.2---
2024-04-15 02:43 pm W 11 20----30.37- 48.7- 22.3---
2024-04-15 02:33 pm W 13 21----30.37- 48.4- 21.9---
2024-04-15 02:13 pm W 13 22----30.37- 48.6- 22.6---
2024-04-15 02:03 pmWNW 10 17----30.36- 48.9- 23.2---
2024-04-15 01:53 pmWNW 8 15----30.36- 49.1- 24.3---
2024-04-15 01:43 pmWNW 10 18----30.36- 48.7- 23.7---
2024-04-15 01:33 pm W 8 17----30.36- 49.1- 24.4---
2024-04-15 01:23 pm W 10 21----30.36- 48.6- 25.3---
2024-04-15 01:13 pmWSW 10 19----30.36- 48.2- 25.2---
2024-04-15 01:03 pmWSW 10 17----30.36- 47.7- 25.2---
2024-04-15 12:53 pm SW 9 17----30.36- 47.5- 25.5---
2024-04-15 12:43 pm W 8 13----30.36- 47.5- 25.5---
2024-04-15 12:34 pmWSW 9 19----30.35- 47.1- 26.1---
2024-04-15 12:23 pmWSW 8 14----30.35- 47.1- 27.1---
2024-04-15 12:13 pmWSW 8 14----30.35- 46.9- 26.8---
2024-04-15 12:03 pm SW 8 16----30.35- 46.6- 27.9---
2024-04-15 11:53 amSSW 5 9----30.35- 46.0- 28.9---
2024-04-15 11:44 amSSE 5 7----30.35- 45.0- 30.0---
2024-04-15 11:33 amSSE 4 6----30.34- 44.2- 30.7---
2024-04-15 11:23 amSSE 4 4----30.34- 43.7- 30.6---
2024-04-15 11:13 amSSE 4 5----30.34- 43.2- 32.0---
2024-04-15 11:03 amSSE 2 3----30.34- 43.3- 33.6---
2024-04-15 10:53 am S 3 4----30.34- 41.9- 33.3---
2024-04-15 10:43 amSSW 3 4----30.34- 42.3- 32.0---
2024-04-15 10:33 am S 2 3----30.34- 42.8- 31.8---
2024-04-15 10:23 amSSE 2 3----30.33- 41.0- 32.4---
2024-04-15 10:13 amSSE 3 4----30.33- 40.6- 31.6---
2024-04-15 10:03 amSSW 3 5----30.33- 40.1- 31.5---
2024-04-15 09:53 amSSW 3 5----30.33- 40.1- 31.5---
2024-04-15 09:43 amSSW 2 2----30.32- 39.9- 31.1---
2024-04-15 09:34 am SE 2 3----30.32- 38.8- 31.8---
2024-04-15 09:23 am SE 2 3----30.32- 38.7- 32.0---
2024-04-15 09:14 amSSE 2 4----30.32- 38.5- 31.8---
2024-04-15 09:03 am S 1 3----30.31- 38.7- 31.1---
2024-04-15 08:53 amESE 2 2----30.31- 37.6- 30.7---
2024-04-15 08:44 amESE 2 3----30.31- 38.3- 30.6---
2024-04-15 08:33 am N 1 2----30.30- 38.1- 30.0---
2024-04-15 08:23 amENE 2 5----30.30- 37.0- 29.8---
2024-04-15 08:13 amNNE 2 5----30.29- 36.5- 30.7---
2024-04-15 08:03 am N 3 5----30.29- 35.4- 30.6---
2024-04-15 07:53 am N 3 5----30.29- 34.9- 30.2---
2024-04-15 07:43 am N 4 7----30.29- 33.8- 29.8---
2024-04-15 07:33 am N 3 5----30.28- 33.4- 29.3---
2024-04-15 07:23 am N 3 4----30.28- 32.9- 29.1---
2024-04-15 07:13 am NE 4 5----30.27- 32.2- 28.8---
2024-04-15 07:03 am N 4 5----30.27- 31.8- 28.6---
2024-04-15 06:53 am N 5 7----30.27- 30.9- 28.2---
2024-04-15 06:43 am N 4 7----30.26- 30.7- 28.0---
2024-04-15 06:33 am N 4 5----30.26- 30.6- 28.0---
2024-04-15 06:23 am N 4 5----30.25- 30.6- 27.9---
2024-04-15 06:13 am N 4 6----30.25- 30.9- 28.0---
2024-04-15 06:03 amNNW 4 7----30.24- 30.7- 28.0---
2024-04-15 05:53 am N 4 5----30.24- 30.6- 28.0---
2024-04-15 05:43 am N 5 8----30.23- 30.6- 28.0---
2024-04-15 05:33 amNNE 3 6----30.23- 30.7- 28.2---
2024-04-15 05:23 am N 3 5----30.22- 30.4- 28.0---
2024-04-15 05:13 am N 5 6----30.22- 30.4- 28.0---
2024-04-15 05:03 am N 3 5----30.22- 30.4- 27.9---
2024-04-15 04:53 am N 4 6----30.21- 30.7- 28.2---
2024-04-15 04:43 amNNW 4 5----30.21- 30.7- 28.0---
2024-04-15 04:33 am N 4 7----30.20- 30.9- 28.0---
2024-04-15 04:23 am N 4 6----30.20- 30.7- 28.4---
2024-04-15 04:13 am N 4 5----30.20- 30.2- 27.9---
2024-04-15 04:03 am N 4 5----30.20- 30.4- 28.0---
2024-04-15 03:53 am N 4 5----30.20- 30.4- 28.2---
2024-04-15 03:43 am N 4 5----30.19- 30.4- 28.4---
2024-04-15 03:33 am N 4 5----30.19- 30.4- 28.2---
2024-04-15 03:23 am N 3 4----30.19- 30.4- 28.2---
2024-04-15 03:13 am N 3 4----30.19- 30.7- 28.6---
2024-04-15 03:04 amNNE 4 5----30.18- 30.4- 28.2---
2024-04-15 02:53 am N 3 4----30.18- 30.6- 28.4---
2024-04-15 02:43 am N 3 4----30.18- 30.7- 28.4---
2024-04-15 02:33 am N 4 5----30.17- 31.1- 28.8---
2024-04-15 02:23 amNNE 4 5----30.17- 31.3- 28.9---
2024-04-15 02:13 am N 4 6----30.16- 31.3- 28.9---
2024-04-15 02:03 am N 4 6----30.16- 31.3- 28.8---
2024-04-15 01:53 am N 4 6----30.16- 31.1- 28.8---